TimeEDT,TemperatureF,Dew PointF,Humidity,Sea Level PressureIn,VisibilityMPH,Wind Direction,Wind SpeedMPH,Gust SpeedMPH,PrecipitationIn,Events,Conditions,WindDirDegrees,DateUTC
12:56 AM,69.1,66.9,93,30.16,10.0,Calm,Calm,-,N/A,,Scattered Clouds,0,2013-09-16 04:56:00
1:56 AM,68.0,66.9,96,30.15,9.0,Calm,Calm,-,N/A,,Partly Cloudy,0,2013-09-16 05:56:00
2:56 AM,68.0,66.9,96,30.13,9.0,Calm,Calm,-,N/A,,Clear,0,2013-09-16 06:56:00
3:56 AM,68.0,66.0,93,30.12,10.0,Calm,Calm,-,N/A,,Clear,0,2013-09-16 07:56:00
4:56 AM,66.0,64.9,96,30.12,8.0,Calm,Calm,-,N/A,,Clear,0,2013-09-16 08:56:00
5:56 AM,66.0,64.9,96,30.13,9.0,Calm,Calm,-,N/A,,Partly Cloudy,0,2013-09-16 09:56:00
6:56 AM,66.0,64.9,96,30.13,8.0,Calm,Calm,-,N/A,,Partly Cloudy,0,2013-09-16 10:56:00
7:56 AM,69.1,66.0,90,30.13,10.0,Calm,Calm,-,N/A,,Scattered Clouds,0,2013-09-16 11:56:00
8:56 AM,75.9,71.1,85,30.13,10.0,Calm,Calm,-,N/A,,Scattered Clouds,0,2013-09-16 12:56:00
9:56 AM,81.0,72.0,74,30.14,10.0,SSW,6.9,-,N/A,,Clear,210,2013-09-16 13:56:00
10:56 AM,84.0,71.1,65,30.12,10.0,SW,8.1,-,N/A,,Clear,220,2013-09-16 14:56:00
11:56 AM,84.0,70.0,63,30.11,10.0,Variable,5.8,-,N/A,,Mostly Cloudy,0,2013-09-16 15:56:00
12:56 PM,86.0,70.0,59,30.08,10.0,SW,3.5,-,N/A,,Mostly Cloudy,220,2013-09-16 16:56:00
1:19 PM,77.0,68.0,74,30.11,1.0,NW,25.3,33.4,0.16,Rain,Light Rain,310,2013-09-16 17:19:00
1:23 PM,71.6,69.8,94,30.10,0.1,NW,20.7,33.4,0.31,Fog-Rain,Heavy Rain,310,2013-09-16 17:23:00
1:29 PM,71.6,69.8,94,30.09,0.1,NW,19.6,28.8,0.45,Fog-Rain-Thunderstorm,Heavy Thunderstorms and Rain,320,2013-09-16 17:29:00
1:36 PM,73.4,71.6,94,30.08,1.0,North,11.5,-,0.48,Rain-Thunderstorm,Light Thunderstorms and Rain,360,2013-09-16 17:36:00
1:47 PM,75.2,71.6,89,30.07,10.0,North,13.8,-,0.48,,Overcast,10,2013-09-16 17:47:00
1:56 PM,75.9,72.0,87,30.08,10.0,NNW,9.2,-,0.48,,Overcast,340,2013-09-16 17:56:00
2:03 PM,77.0,71.6,83,30.07,10.0,Variable,4.6,-,N/A,,Partly Cloudy,0,2013-09-16 18:03:00
2:56 PM,79.0,71.1,77,30.07,10.0,ESE,3.5,-,N/A,,Scattered Clouds,110,2013-09-16 18:56:00
3:56 PM,80.1,71.1,74,30.06,10.0,ESE,3.5,-,N/A,,Mostly Cloudy,110,2013-09-16 19:56:00
4:56 PM,80.1,72.0,76,30.05,10.0,ESE,8.1,-,N/A,,Mostly Cloudy,120,2013-09-16 20:56:00
5:56 PM,78.1,71.1,79,30.06,10.0,SE,4.6,-,N/A,,Mostly Cloudy,140,2013-09-16 21:56:00
6:56 PM,77.0,71.1,82,30.07,10.0,Calm,Calm,-,N/A,,Mostly Cloudy,0,2013-09-16 22:56:00
7:56 PM,73.9,72.0,93,30.08,10.0,Calm,Calm,-,N/A,,Mostly Cloudy,0,2013-09-16 23:56:00
8:56 PM,73.0,72.0,96,30.10,9.0,Calm,Calm,-,N/A,,Mostly Cloudy,0,2013-09-17 00:56:00
10:02 PM,73.4,68.0,83,30.12,10.0,North,13.8,-,N/A,,Mostly Cloudy,10,2013-09-17 02:02:00
10:41 PM,71.6,64.4,78,30.13,9.0,NNE,10.4,-,0.00,Rain,Light Rain,20,2013-09-17 02:41:00
10:56 PM,71.1,64.9,81,30.14,9.0,NNE,10.4,-,0.01,Rain,Light Rain,20,2013-09-17 02:56:00
11:56 PM,70.0,64.9,84,30.15,10.0,North,11.5,-,0.00,,Mostly Cloudy,10,2013-09-17 03:56:00